Location: ??????
(56.0120°N, 39.1740°E)
Time: 21:45:36
(UTC+00:00)

USA 229 - Pass Details

Date: 14 April 2026
Orbit: 843 x 1365 km, 63.4° (Epoch: 10 January)

Event Time Altitude Azimuth Distance (km) Brightness Sun altitude
Rises 21:51:03 0° 305° (NW) 3,856 7.0 -24.1°
Reaches altitude 10° 21:53:34 10° 307° (NW) 2,970 6.4 -24.0°
Maximum altitude 22:00:47 83° 36° (NE) 1,224 3.9 -23.9°
Drops below altitude 10° 22:08:53 10° 125° (SE) 3,319 6.0 -23.6°
Sets 22:11:50 0° 126° (SE) 4,333 6.7 -23.6°
